Time,TemperatureF,DewpointF,PressureIn,WindDirection,WindDirectionDegrees,WindSpeedMPH,WindSpeedGustMPH,Humidity,HourlyPrecipIn,Conditions,Clouds,dailyrainin,SoftwareType,DateUTC
2013-05-13 00:03:00,41.0,27.0,-100.00,SW,218,2.0,14.0,54,0.00,,,-99.99,,2013-05-13 04:03:00,
2013-05-13 00:12:00,41.0,27.0,-100.00,West,261,4.0,14.0,54,0.00,,,-99.99,,2013-05-13 04:12:00,
2013-05-13 00:23:00,41.0,27.0,-100.00,WSW,252,5.0,14.0,53,0.00,,,-99.99,,2013-05-13 04:23:00,
2013-05-13 00:33:00,41.0,27.0,-100.00,WSW,248,4.0,14.0,53,0.00,,,-99.99,,2013-05-13 04:33:00,
2013-05-13 00:42:00,41.0,27.0,-100.00,SW,234,5.0,14.0,54,0.00,,,-99.99,,2013-05-13 04:42:00,
2013-05-13 00:52:00,41.0,27.0,-100.00,SW,234,5.0,14.0,54,0.00,,,-99.99,,2013-05-13 04:52:00,
2013-05-13 01:02:00,41.0,27.0,-100.00,SW,224,4.0,14.0,55,0.00,,,-99.99,,2013-05-13 05:02:00,
2013-05-13 01:12:00,41.0,27.0,-100.00,WNW,282,5.0,14.0,54,0.00,,,-99.99,,2013-05-13 05:12:00,
2013-05-13 01:22:00,41.0,27.0,-100.00,West,280,4.0,14.0,56,0.00,,,-99.99,,2013-05-13 05:22:00,
2013-05-13 01:32:00,40.0,27.0,-100.00,South,186,2.0,14.0,56,0.00,,,-99.99,,2013-05-13 05:32:00,
2013-05-13 01:42:00,40.0,28.0,-100.00,South,170,5.0,14.0,58,0.00,,,-99.99,,2013-05-13 05:42:00,
2013-05-13 01:52:00,40.0,28.0,-100.00,SW,230,4.0,14.0,58,0.00,,,-99.99,,2013-05-13 05:52:00,
2013-05-13 02:01:00,40.0,27.0,-100.00,SSW,197,7.0,14.0,56,0.00,,,-99.99,,2013-05-13 06:01:00,
2013-05-13 02:12:00,40.0,25.0,-100.00,SW,232,6.0,14.0,53,0.00,,,-99.99,,2013-05-13 06:12:00,
2013-05-13 02:21:00,40.0,23.0,-100.00,SSW,211,4.0,14.0,50,0.00,,,-99.99,,2013-05-13 06:21:00,
2013-05-13 02:32:00,40.0,23.0,-100.00,SW,221,6.0,14.0,49,0.00,,,-99.99,,2013-05-13 06:32:00,
2013-05-13 02:42:00,38.0,21.0,-100.00,SW,221,6.0,14.0,50,0.00,,,-99.99,,2013-05-13 06:42:00,
2013-05-13 02:52:00,40.0,23.0,-100.00,WSW,248,4.0,14.0,50,0.00,,,-99.99,,2013-05-13 06:52:00,
2013-05-13 03:01:00,38.0,21.0,-100.00,South,175,5.0,14.0,49,0.00,,,-99.99,,2013-05-13 07:01:00,
2013-05-13 03:11:00,40.0,25.0,-100.00,South,187,4.0,14.0,50,0.00,,,-99.99,,2013-05-13 07:11:00,
2013-05-13 03:22:00,38.0,21.0,-100.00,SW,234,6.0,14.0,50,0.00,,,-99.99,,2013-05-13 07:22:00,
2013-05-13 03:32:00,40.0,25.0,-100.00,South,180,4.0,14.0,53,0.00,,,-99.99,,2013-05-13 07:32:00,
2013-05-13 03:42:00,40.0,25.0,-100.00,WSW,249,6.0,14.0,51,0.00,,,-99.99,,2013-05-13 07:42:00,
2013-05-13 03:52:00,39.0,25.0,-100.00,SSW,208,5.0,14.0,53,0.00,,,-99.99,,2013-05-13 07:52:00,
2013-05-13 04:02:00,39.0,25.0,-100.00,WNW,283,3.0,14.0,54,0.00,,,-99.99,,2013-05-13 08:02:00,
2013-05-13 04:11:00,39.0,25.0,-100.00,SW,220,6.0,14.0,53,0.00,,,-99.99,,2013-05-13 08:11:00,
2013-05-13 04:21:00,39.0,25.0,-100.00,SSW,204,6.0,14.0,54,0.00,,,-99.99,,2013-05-13 08:21:00,
2013-05-13 04:32:00,39.0,25.0,-100.00,SW,218,6.0,14.0,53,0.00,,,-99.99,,2013-05-13 08:32:00,
2013-05-13 04:42:00,39.0,25.0,-100.00,SW,221,5.0,14.0,54,0.00,,,-99.99,,2013-05-13 08:42:00,
2013-05-13 04:51:00,39.0,25.0,-100.00,South,190,6.0,14.0,55,0.00,,,-99.99,,2013-05-13 08:51:00,
2013-05-13 05:01:00,37.0,23.0,-100.00,SSW,203,5.0,14.0,54,0.00,,,-99.99,,2013-05-13 09:01:00,
2013-05-13 05:11:00,38.0,25.0,-100.00,WSW,258,3.0,14.0,55,0.00,,,-99.99,,2013-05-13 09:11:00,
2013-05-13 05:21:00,37.0,23.0,-100.00,WSW,240,4.0,14.0,55,0.00,,,-99.99,,2013-05-13 09:21:00,
2013-05-13 05:33:00,41.0,27.0,-100.00,SW,217,4.0,14.0,56,0.00,,,-99.99,,2013-05-13 09:33:00,
2013-05-13 05:42:00,38.0,25.0,-100.00,SSW,200,4.0,14.0,56,0.00,,,-99.99,,2013-05-13 09:42:00,
2013-05-13 05:52:00,38.0,25.0,-100.00,WSW,240,2.0,14.0,58,0.00,,,-99.99,,2013-05-13 09:52:00,
2013-05-13 06:03:00,37.0,25.0,-100.00,South,173,2.0,14.0,59,0.00,,,-99.99,,2013-05-13 10:03:00,
2013-05-13 06:12:00,39.0,27.0,-100.00,South,182,1.0,14.0,60,0.00,,,-99.99,,2013-05-13 10:12:00,
2013-05-13 06:22:00,39.0,28.0,-100.00,SW,230,3.0,14.0,62,0.00,,,-99.99,,2013-05-13 10:22:00,
2013-05-13 06:33:00,39.0,28.0,-100.00,WSW,242,4.0,14.0,62,0.00,,,-99.99,,2013-05-13 10:33:00,
2013-05-13 06:42:00,38.0,27.0,-100.00,WSW,244,2.0,14.0,60,0.00,,,-99.99,,2013-05-13 10:42:00,
2013-05-13 06:52:00,37.0,27.0,-100.00,SW,221,3.0,14.0,62,0.00,,,-99.99,,2013-05-13 10:52:00,
2013-05-13 07:02:00,38.0,27.0,-100.00,SW,230,5.0,14.0,62,0.00,,,-99.99,,2013-05-13 11:02:00,
2013-05-13 07:12:00,40.0,28.0,-100.00,SW,220,4.0,14.0,63,0.00,,,-99.99,,2013-05-13 11:12:00,
2013-05-13 07:22:00,38.0,28.0,-100.00,WSW,237,2.0,14.0,64,0.00,,,-99.99,,2013-05-13 11:22:00,
2013-05-13 07:32:00,39.0,28.0,-100.00,SSW,196,4.0,14.0,64,0.00,,,-99.99,,2013-05-13 11:32:00,
2013-05-13 07:42:00,40.0,28.0,-100.00,SSW,203,6.0,14.0,62,0.00,,,-99.99,,2013-05-13 11:42:00,
2013-05-13 07:52:00,38.0,27.0,-100.00,WSW,249,6.0,14.0,60,0.00,,,-99.99,,2013-05-13 11:52:00,
2013-05-13 08:02:00,40.0,28.0,-100.00,West,268,6.0,14.0,60,0.00,,,-99.99,,2013-05-13 12:02:00,
2013-05-13 08:12:00,40.0,28.0,-100.00,WSW,249,7.0,14.0,59,0.00,,,-99.99,,2013-05-13 12:12:00,
2013-05-13 08:21:00,39.0,25.0,-100.00,South,190,7.0,14.0,56,2.83,,,-99.99,,2013-05-13 12:21:00,
2013-05-13 08:32:00,39.0,25.0,-100.00,SW,218,7.0,14.0,56,0.00,,,-99.99,,2013-05-13 12:32:00,
2013-05-13 08:42:00,39.0,25.0,-100.00,West,273,7.0,14.0,55,0.00,,,-99.99,,2013-05-13 12:42:00,
2013-05-13 08:51:00,39.0,25.0,-100.00,West,268,7.0,14.0,54,0.00,,,-99.99,,2013-05-13 12:51:00,
2013-05-13 09:01:00,39.0,23.0,-100.00,WSW,247,4.0,14.0,51,0.00,,,-99.99,,2013-05-13 13:01:00,
2013-05-13 09:11:00,40.0,25.0,-100.00,WNW,300,4.0,14.0,53,0.00,,,-99.99,,2013-05-13 13:11:00,
2013-05-13 09:21:00,41.0,27.0,-100.00,South,177,6.0,14.0,53,0.00,,,-99.99,,2013-05-13 13:21:00,
2013-05-13 09:32:00,41.0,25.0,-100.00,West,271,6.0,14.0,51,0.00,,,-99.99,,2013-05-13 13:32:00,
2013-05-13 09:42:00,41.0,27.0,-100.00,SSW,208,6.0,14.0,55,0.00,,,-99.99,,2013-05-13 13:42:00,
2013-05-13 09:52:00,41.0,27.0,-100.00,West,264,4.0,14.0,55,0.00,,,-99.99,,2013-05-13 13:52:00,
2013-05-13 10:02:00,39.0,25.0,-100.00,SSW,207,5.0,14.0,56,0.00,,,-99.99,,2013-05-13 14:02:00,
2013-05-13 10:11:00,39.0,27.0,-100.00,SSW,203,6.0,14.0,58,0.00,,,-99.99,,2013-05-13 14:11:00,
2013-05-13 10:22:00,40.0,27.0,-100.00,SW,231,5.0,14.0,55,0.00,,,-99.99,,2013-05-13 14:22:00,
2013-05-13 10:32:00,40.0,27.0,-100.00,SW,234,6.0,14.0,56,0.00,,,-99.99,,2013-05-13 14:32:00,
2013-05-13 10:41:00,40.0,27.0,-100.00,SSW,210,6.0,14.0,54,0.00,,,-99.99,,2013-05-13 14:41:00,
2013-05-13 10:51:00,41.0,27.0,-100.00,SW,221,9.0,14.0,54,0.00,,,-99.99,,2013-05-13 14:51:00,
2013-05-13 11:01:00,41.0,27.0,-100.00,SSW,196,8.0,14.0,55,0.00,,,-99.99,,2013-05-13 15:01:00,
2013-05-13 11:11:00,41.0,27.0,-100.00,SW,216,9.0,14.0,53,0.00,,,-99.99,,2013-05-13 15:11:00,
2013-05-13 11:21:00,43.0,28.0,-100.00,South,175,6.0,14.0,54,0.00,,,-99.99,,2013-05-13 15:21:00,
2013-05-13 11:32:00,42.0,25.0,-100.00,South,189,3.0,14.0,50,0.00,,,-99.99,,2013-05-13 15:32:00,
2013-05-13 11:42:00,42.0,25.0,-100.00,WSW,247,6.0,14.0,50,0.00,,,-99.99,,2013-05-13 15:42:00,
2013-05-13 11:53:00,43.0,27.0,-100.00,SSW,203,6.0,14.0,49,0.00,,,-99.99,,2013-05-13 15:53:00,
2013-05-13 12:03:00,42.0,28.0,-100.00,West,259,5.0,14.0,54,0.00,,,-99.99,,2013-05-13 16:03:00,
2013-05-13 12:12:00,43.0,28.0,-100.00,WSW,248,4.0,14.0,53,0.00,,,-99.99,,2013-05-13 16:12:00,
2013-05-13 12:21:00,43.0,28.0,-100.00,WSW,248,4.0,14.0,53,0.00,,,-99.99,,2013-05-13 16:21:00,
2013-05-13 12:33:00,43.0,28.0,-100.00,WSW,248,4.0,14.0,53,0.00,,,-99.99,,2013-05-13 16:33:00,
2013-05-13 12:42:00,44.0,27.0,-100.00,South,186,6.0,14.0,50,0.00,,,-99.99,,2013-05-13 16:42:00,
2013-05-13 12:52:00,45.0,28.0,-100.00,SW,224,5.0,14.0,50,0.00,,,-99.99,,2013-05-13 16:52:00,
2013-05-13 13:02:00,44.0,28.0,-100.00,South,172,5.0,14.0,51,0.00,,,-99.99,,2013-05-13 17:02:00,
2013-05-13 13:12:00,43.0,27.0,-100.00,SSW,213,7.0,14.0,51,0.00,,,-99.99,,2013-05-13 17:12:00,
2013-05-13 13:21:00,44.0,28.0,-100.00,South,172,6.0,14.0,50,0.00,,,-99.99,,2013-05-13 17:21:00,
2013-05-13 13:32:00,43.0,28.0,-100.00,South,186,6.0,14.0,53,0.00,,,-99.99,,2013-05-13 17:32:00,
2013-05-13 13:42:00,44.0,28.0,-100.00,WNW,289,6.0,14.0,53,0.00,,,-99.99,,2013-05-13 17:42:00,
2013-05-13 13:54:00,45.0,30.0,-100.00,WSW,245,7.0,14.0,54,0.00,,,-99.99,,2013-05-13 17:54:00,
2013-05-13 14:03:00,45.0,30.0,-100.00,SW,221,6.0,14.0,53,0.00,,,-99.99,,2013-05-13 18:03:00,
2013-05-13 14:13:00,45.0,28.0,-100.00,WSW,242,5.0,14.0,49,0.00,,,-99.99,,2013-05-13 18:13:00,
2013-05-13 14:23:00,45.0,28.0,-100.00,WNW,293,6.0,14.0,49,0.00,,,-99.99,,2013-05-13 18:23:00,
2013-05-13 14:32:00,46.0,27.0,-100.00,West,268,8.0,14.0,46,0.00,,,-99.99,,2013-05-13 18:32:00,
2013-05-13 14:42:00,46.0,27.0,-100.00,SW,225,7.0,14.0,44,0.00,,,-99.99,,2013-05-13 18:42:00,
2013-05-13 14:51:00,45.0,23.0,-100.00,South,189,5.0,14.0,38,0.00,,,-99.99,,2013-05-13 18:51:00,
2013-05-13 15:01:00,47.0,28.0,-100.00,SSW,213,6.0,14.0,45,0.00,,,-99.99,,2013-05-13 19:01:00,
2013-05-13 15:12:00,47.0,25.0,-100.00,NNW,338,5.0,14.0,41,0.00,,,-99.99,,2013-05-13 19:12:00,
2013-05-13 15:21:00,46.0,25.0,-100.00,SSW,201,6.0,14.0,41,0.00,,,-99.99,,2013-05-13 19:21:00,
2013-05-13 15:32:00,46.0,25.0,-100.00,SW,223,6.0,14.0,40,0.00,,,-99.99,,2013-05-13 19:32:00,
2013-05-13 15:44:00,47.0,25.0,-100.00,WSW,242,5.0,14.0,40,0.00,,,-99.99,,2013-05-13 19:44:00,
2013-05-13 15:53:00,47.0,28.0,-100.00,NW,309,5.0,14.0,45,0.00,,,-99.99,,2013-05-13 19:53:00,
2013-05-13 16:02:00,46.0,25.0,-100.00,SW,220,6.0,14.0,41,0.00,,,-99.99,,2013-05-13 20:02:00,
2013-05-13 16:11:00,45.0,23.0,-100.00,SSW,213,5.0,14.0,40,0.00,,,-99.99,,2013-05-13 20:11:00,
2013-05-13 16:23:00,47.0,25.0,-100.00,NW,304,6.0,14.0,41,0.00,,,-99.99,,2013-05-13 20:23:00,
2013-05-13 16:34:00,46.0,27.0,-100.00,WSW,251,6.0,14.0,46,0.00,,,-99.99,,2013-05-13 20:34:00,
2013-05-13 16:44:00,46.0,25.0,-100.00,WNW,295,7.0,14.0,42,0.00,,,-99.99,,2013-05-13 20:44:00,
2013-05-13 16:53:00,47.0,28.0,-100.00,SSW,210,7.0,14.0,46,0.00,,,-99.99,,2013-05-13 20:53:00,
2013-05-13 17:03:00,49.0,28.0,-100.00,SW,216,6.0,14.0,42,0.00,,,-99.99,,2013-05-13 21:03:00,
2013-05-13 17:14:00,46.0,25.0,-100.00,WNW,283,6.0,14.0,42,0.00,,,-99.99,,2013-05-13 21:14:00,
2013-05-13 17:23:00,46.0,27.0,-100.00,SSW,207,9.0,14.0,44,0.00,,,-99.99,,2013-05-13 21:23:00,
2013-05-13 17:33:00,47.0,27.0,-100.00,SSW,204,6.0,14.0,41,0.00,,,-99.99,,2013-05-13 21:33:00,
2013-05-13 17:43:00,48.0,25.0,-100.00,West,271,4.0,14.0,40,0.00,,,-99.99,,2013-05-13 21:43:00,
2013-05-13 17:53:00,47.0,28.0,-100.00,SSW,196,4.0,14.0,45,0.00,,,-99.99,,2013-05-13 21:53:00,
2013-05-13 18:02:00,48.0,27.0,-100.00,West,261,4.0,14.0,41,0.00,,,-99.99,,2013-05-13 22:02:00,
2013-05-13 18:12:00,49.0,28.0,-100.00,SW,227,3.0,14.0,44,0.00,,,-99.99,,2013-05-13 22:12:00,
2013-05-13 18:23:00,48.0,27.0,-100.00,South,186,4.0,14.0,42,0.00,,,-99.99,,2013-05-13 22:23:00,
2013-05-13 18:32:00,50.0,30.0,-100.00,West,259,5.0,14.0,45,0.00,,,-99.99,,2013-05-13 22:32:00,
2013-05-13 18:43:00,48.0,27.0,-100.00,West,272,3.0,14.0,42,0.00,,,-99.99,,2013-05-13 22:43:00,
2013-05-13 18:52:00,47.0,27.0,-100.00,WSW,256,5.0,14.0,42,0.00,,,-99.99,,2013-05-13 22:52:00,
2013-05-13 19:02:00,48.0,28.0,-100.00,South,179,3.0,14.0,45,0.00,,,-99.99,,2013-05-13 23:02:00,
2013-05-13 19:13:00,48.0,27.0,-100.00,SW,227,4.0,14.0,42,0.00,,,-99.99,,2013-05-13 23:13:00,
2013-05-13 19:23:00,49.0,28.0,-100.00,West,278,4.0,14.0,44,0.00,,,-99.99,,2013-05-13 23:23:00,
2013-05-13 19:34:00,48.0,28.0,-100.00,WSW,245,4.0,14.0,45,0.00,,,-99.99,,2013-05-13 23:34:00,
2013-05-13 19:42:00,48.0,27.0,-100.00,West,261,2.0,14.0,42,0.00,,,-99.99,,2013-05-13 23:42:00,
2013-05-13 19:53:00,49.0,30.0,-100.00,SSW,204,2.0,14.0,46,0.00,,,-99.99,,2013-05-13 23:53:00,
2013-05-13 20:02:00,49.0,30.0,-100.00,SSW,204,0.0,14.0,46,0.00,,,-99.99,,2013-05-14 00:02:00,
2013-05-13 20:13:00,47.0,30.0,-100.00,West,259,0.0,14.0,50,0.00,,,-99.99,,2013-05-14 00:13:00,
2013-05-13 20:22:00,47.0,30.0,-100.00,WSW,242,1.0,1.0,51,0.00,,,-99.99,,2013-05-14 00:22:00,
2013-05-13 20:32:00,44.0,28.0,-100.00,WSW,255,1.0,1.0,53,0.00,,,-99.99,,2013-05-14 00:32:00,
2013-05-13 20:42:00,46.0,32.0,-100.00,West,265,1.0,1.0,55,0.00,,,-99.99,,2013-05-14 00:42:00,
2013-05-13 20:51:00,45.0,32.0,-100.00,WSW,252,0.0,1.0,56,0.00,,,-99.99,,2013-05-14 00:51:00,
2013-05-13 21:02:00,45.0,32.0,-100.00,WSW,237,0.0,1.0,58,0.00,,,-99.99,,2013-05-14 01:02:00,
2013-05-13 21:11:00,43.0,30.0,-100.00,WSW,252,0.0,1.0,60,0.00,,,-99.99,,2013-05-14 01:11:00,
2013-05-13 21:21:00,42.0,32.0,-100.00,SW,232,1.0,1.0,63,0.00,,,-99.99,,2013-05-14 01:21:00,
2013-05-13 21:32:00,41.0,30.0,-100.00,SW,223,0.0,1.0,64,0.00,,,-99.99,,2013-05-14 01:32:00,
2013-05-13 21:43:00,41.0,32.0,-100.00,NE,40,0.0,1.0,67,0.00,,,-99.99,,2013-05-14 01:43:00,
2013-05-13 21:53:00,42.0,32.0,-100.00,SE,128,0.0,1.0,68,0.00,,,-99.99,,2013-05-14 01:53:00,
2013-05-13 22:02:00,42.0,32.0,-100.00,SE,128,0.0,1.0,68,0.00,,,-99.99,,2013-05-14 02:02:00,
2013-05-13 22:12:00,41.0,32.0,-100.00,NE,46,0.0,1.0,73,0.00,,,-99.99,,2013-05-14 02:12:00,
2013-05-13 22:22:00,40.0,32.0,-100.00,East,97,1.0,1.0,72,0.00,,,-99.99,,2013-05-14 02:22:00,
2013-05-13 22:32:00,40.0,32.0,-100.00,East,83,0.0,1.0,73,0.00,,,-99.99,,2013-05-14 02:32:00,
2013-05-13 22:42:00,40.0,32.0,-100.00,East,83,0.0,1.0,75,0.00,,,-99.99,,2013-05-14 02:42:00,
2013-05-13 22:52:00,40.0,32.0,-100.00,NE,56,0.0,1.0,77,0.00,,,-99.99,,2013-05-14 02:52:00,
2013-05-13 23:01:00,38.0,32.0,-100.00,NE,56,0.0,1.0,77,0.00,,,-99.99,,2013-05-14 03:01:00,
2013-05-13 23:11:00,37.0,32.0,-100.00,ENE,57,0.0,1.0,81,0.00,,,-99.99,,2013-05-14 03:11:00,
2013-05-13 23:21:00,37.0,32.0,-100.00,East,101,0.0,1.0,80,0.00,,,-99.99,,2013-05-14 03:21:00,
2013-05-13 23:33:00,38.0,32.0,-100.00,East,84,1.0,1.0,80,0.00,,,-99.99,,2013-05-14 03:33:00,
2013-05-13 23:42:00,38.0,32.0,-100.00,East,84,1.0,1.0,80,0.00,,,-99.99,,2013-05-14 03:42:00,
2013-05-13 23:52:00,38.0,32.0,-100.00,East,91,0.0,1.0,77,0.00,,,-99.99,,2013-05-14 03:52:00,